Weather Roundup
Issued by NWS Corpus Christi, TX

Home | Current Version | Previous Version | Text Only | Print | Product List | Glossary On
Versions: 1 2 3 4 5 6 7 8 9 10 11 12 13 14 15 16 17 18 19 20 21 22 23 24 25 26 27 28 29 30 31 32 33 34 35 36 37 38 39 40 41 42 43 44 45 46 47 48 49 50
000
ASUS44 KCRP 262010
HRRCRP

SOUTH TEXAS REGIONAL WEATHER ROUNDUP
NATIONAL WEATHER SERVICE CORPUS CHRISTI TX
300 PM CDT THU MAY 26 2016


TXZ229>244-262100-
...CORPUS CHRISTI AREA OBSERVATIONS...

CITY           SKY/WX    TMP DP  RH WIND       PRES   REMARKS
CORPUS CHRISTI PTSUNNY   88  77  69 S26G36    29.82F HX 100
NAS CORPUS CHR PTSUNNY   87  79  76 S28G35    29.84F HX 101
ROCKPORT       PTSUNNY   87  76  69 S21G26    29.83F HX  97
KINGSVILLE NAS PTSUNNY   94  80  64 S24G31    29.80F HX 113
ALICE          PTSUNNY   93  76  57 S21G31    29.79F HX 105
FALFURRIAS     FAIR      93  74  54 SE17G24   29.80F HX 103
$$

...VICTORIA AREA OBSERVATIONS...

CITY           SKY/WX    TMP DP  RH WIND       PRES   REMARKS
VICTORIA       CLOUDY    86  75  69 S25G37    29.84F HX  95
BEEVILLE       CLOUDY    89  79  72 S20G26    29.82F HX 104
PLEASANTON     FAIR      91  73  55 S17G23    29.81F HX  99
SAN ANTONIO    PTSUNNY   88  76  67 S18       29.82F HX  99
$$

...LAREDO AREA OBSERVATIONS...

CITY           SKY/WX    TMP DP  RH WIND       PRES   REMARKS
LAREDO         FAIR      93  76  57 SE22G31   29.79F HX 105
COTULLA        FAIR      96  73  47 S12G20    29.78F HX 105
DEL RIO        FAIR      92  69  47 SE16G23   29.76F HX  97
MCALLEN        FAIR      93  77  59 SE18G32   29.82F HX 107
HEBBRONVILLE   PTSUNNY   91  73  54 S20G25    29.82F HX  99
$$

...OTHER TEXAS OBSERVATIONS...

CITY           SKY/WX    TMP DP  RH WIND       PRES   REMARKS
BROWNSVILLE    FAIR      90  77  65 S21G31    29.86F HX 103
HOUSTON        CLOUDY    80  74  81 SE17G30   29.85F
COL. STATION   TSTM      72  71  97 NE16      29.85F FOG
AUSTIN         PTSUNNY   86  74  67 SW13      29.79F HX  94
WACO           FAIR      73  67  81 E15       29.84F
FORT WORTH     CLOUDY    78  63  59 SE13      29.84F
WICHITA FALLS  PTSUNNY   84  67  56 S22G30    29.75F
LUBBOCK        FAIR      92  30  11 SW25G32   29.76F
EL PASO        FAIR      84  27  12 W15G24    29.88F
$$

...MARINE OBSERVATIONS...

STATION/POSITION TIME  SKY/WX   TEMP    WIND        PRES    VSBY  WAVE   SWELL
                                AIR SEA DIR/SP/G                  HT/PER HT/PER
                 (UTC)          (F)     (DEG/KT/KT) (MB)    (MI)  (FT/S) (FT/S)
PORT ARANSAS     2000            82 84  150/ 25/ 27 1011.0F
BUOY 90 E PORT A 1950            81 81  150/ 19/ 23 1012.3F         6/ 6
BUOY 45 SE BAFFI 1950            82 82  170/ 23/ 27 1010.2F         6/ 7
BUOY 200 E PT IS 1950                                 N/A           4/ 6
BUOY 15 E GALVES 1950            81 80  140/ 17/ 21 1012.9F         5/ 7
$$




USA.gov is the U.S. government's official web portal to all federal, state and local government web resources and services.